Sidney, NE

1:35 AM MDT on April 26, 2017 (GMT -0600)
Sidney Municipal

Weather History for KSNY - July, 2013

Change the Weather History Date:

Monday, July 1, 2013

  Actual Average Record
Temperature  
Mean Temperature 68 °F 73 °F  
Max Temperature 79 °F 89 °F 102 °F (2002)
Min Temperature 56 °F 58 °F 39 °F (1959)
Degree Days  
Heating Degree Days 0 0  
Month to date heating degree days 0 0  
Since 1 June heating degree days 37 59  
Since 1 July heating degree days 0 0  
Cooling Degree Days 3 8  
Month to date cooling degree days 3 8  
Year to date cooling degree days 204 167  
Since 1 June cooling degree days 171 145  
Growing Degree Days 18 (Base 50)    
Moisture  
Dew Point 53 °F    
Average Humidity 62    
Maximum Humidity 84    
Minimum Humidity 39    
Precipitation  
Precipitation 0.22 in 0.09 in 0.94 in (1956)
Month to date precipitation 0.22 0.09  
Year to date precipitation 6.30 10.03  
Sea Level Pressure  
Sea Level Pressure 30.19 in    
Wind  
Wind Speed 8 mph (SSE)    
Max Wind Speed 24 mph    
Max Gust Speed 29 mph    
Visibility 10 miles    
Events Rain , Thunderstorm    
T = Trace of Precipitation, MM = Missing Value Source: NWS Daily Summary

Daily Weather History Graph

Daily Weather History Graph

Search for Another Location

Airport or City:

Trip Planner

Search our weather history database for the weather conditions in past years. The results will help you decide how hot, cold, wet, or windy it might be!

Date:

Astronomy

Jul. 01, 2013 Rise Set
Actual Time 5:23 AM MDT 8:28 PM MDT
Civil Twilight 4:49 AM MDT 9:01 PM MDT
Nautical Twilight 4:07 AM MDT 9:44 PM MDT
Astronomical Twilight 3:16 AM MDT 10:34 PM MDT
Moon 12:56 AM MDT (7/1) 2:44 PM MDT (7/1)
Length of Visible Light 16h 11m
Length of Day
15h 04m
Waning Crescent, 35% of the Moon is Illuminated
Jul 1
Waning Crescent
Jul 8
New
Jul 15
First Quarter
Jul 22
Full
Jul 29
Last Quarter

Hourly Weather History & Observations

Time (MDT) Temp. Dew Point Humidity Pressure Visibility Wind Dir Wind Speed Gust Speed Precip Events Conditions
12:53 AM 64.9 °F 48.0 °F 54% 30.12 in 10.0 mi SE 9.2 mph - N/A   Overcast
1:53 AM 64.9 °F 46.9 °F 52% 30.12 in 10.0 mi SSE 9.2 mph - N/A   Overcast
2:43 AM 62.6 °F 51.8 °F 68% 30.28 in 10.0 mi ESE 9.2 mph - N/A Thunderstorm Mostly Cloudy
2:53 AM 61.0 °F 51.1 °F 70% 30.13 in 10.0 mi SSE 11.5 mph - N/A Thunderstorm Mostly Cloudy
3:13 AM 60.8 °F 51.8 °F 72% 30.27 in 10.0 mi SSE 10.4 mph - N/A   Mostly Cloudy
3:32 AM 60.8 °F 51.8 °F 72% 30.30 in 10.0 mi ESE 17.3 mph 21.9 mph N/A Thunderstorm Thunderstorm
3:53 AM 57.9 °F 54.0 °F 87% 30.15 in 6.0 mi SSE 16.1 mph 25.3 mph 0.12 in Rain Light Rain
4:02 AM 57.2 °F 55.4 °F 94% 30.28 in 10.0 mi SSE 15.0 mph - 0.00 in Rain , Thunderstorm Light Rain
4:14 AM 57.2 °F 55.4 °F 94% 30.30 in 10.0 mi SE 12.7 mph - 0.00 in Thunderstorm Overcast
4:53 AM 57.9 °F 55.0 °F 90% 30.15 in 8.0 mi South 12.7 mph - 0.03 in Rain , Thunderstorm Light Rain
4:58 AM 57.2 °F 55.4 °F 94% 30.30 in 9.0 mi South 8.1 mph - 0.00 in Thunderstorm Overcast
5:53 AM 57.9 °F 55.0 °F 90% 30.17 in 7.0 mi SSW 8.1 mph - 0.02 in Rain Light Rain
6:53 AM 60.1 °F 55.9 °F 86% 30.18 in 10.0 mi SW 10.4 mph - 0.02 in   Overcast
7:53 AM 61.0 °F 55.9 °F 83% 30.20 in 10.0 mi SSW 4.6 mph - N/A   Mostly Cloudy
8:53 AM 64.9 °F 57.0 °F 75% 30.20 in 10.0 mi South 4.6 mph - N/A   Clear
9:53 AM 69.1 °F 55.9 °F 63% 30.20 in 10.0 mi SSE 10.4 mph - N/A   Partly Cloudy
10:53 AM 72.0 °F 55.0 °F 55% 30.20 in 10.0 mi SE 9.2 mph - N/A   Mostly Cloudy
11:53 AM 75.0 °F 54.0 °F 48% 30.19 in 10.0 mi SE 11.5 mph - N/A   Partly Cloudy
12:53 PM 75.0 °F 52.0 °F 44% 30.17 in 10.0 mi East 6.9 mph 17.3 mph N/A   Mostly Cloudy
1:53 PM 78.1 °F 51.1 °F 39% 30.16 in 10.0 mi Calm Calm - N/A   Mostly Cloudy
2:53 PM 77.0 °F 51.1 °F 40% 30.16 in 10.0 mi ESE 5.8 mph - N/A   Mostly Cloudy
3:53 PM 77.0 °F 51.1 °F 40% 30.16 in 10.0 mi South 9.2 mph - 0.02 in   Clear
4:53 PM 77.0 °F 50.0 °F 39% 30.15 in 10.0 mi SSW 10.4 mph - N/A   Partly Cloudy
5:53 PM 70.0 °F 55.9 °F 61% 30.18 in 10.0 mi ESE 9.2 mph - 0.01 in   Mostly Cloudy
6:53 PM 72.0 °F 52.0 °F 49% 30.16 in 10.0 mi SE 5.8 mph - N/A   Clear
7:53 PM 69.1 °F 55.0 °F 61% 30.16 in 10.0 mi East 6.9 mph - N/A   Mostly Cloudy
8:53 PM 64.0 °F 57.0 °F 78% 30.17 in 10.0 mi East 3.5 mph - N/A   Clear
9:53 PM 61.0 °F 53.1 °F 75% 30.19 in 10.0 mi SE 6.9 mph - N/A   Clear
10:53 PM 60.1 °F 51.1 °F 72% 30.19 in 10.0 mi SSE 9.2 mph - N/A   Scattered Clouds
11:53 PM 59.0 °F 48.0 °F 67% 30.19 in 10.0 mi SSE 9.2 mph - N/A   Clear